User: anonymous   Login
Location: Unspecified
(0.0000°N, 0.0000°E)
Time: 03:40:16
(UTC+00:00)
Language:

Astrid - Orbit

View from above orbital plane
View from above orbital plane
View from above satellite
View from above satellite

Ground track
Ground track

The orbit data is extracted from the following two-line orbital elements,

1 23464U 95002B   18230.40334781  .00000048  00000-0  35524-4 0  9994
2 23464  82.9304 333.4991 0041322 171.4186 188.7684 13.72554133180161
Epoch (UTC): 18 August 2018 09:40:49
Eccentricity: 0.0041322
inclination: 82.9304°
perigee height: 960 km
apogee height: 1021 km
right ascension of ascending node: 333.4991°
argument of perigee: 171.4186°
revolutions per day: 13.72554133
mean anomaly at epoch: 188.7684°
orbit number at epoch: 18016

The dashed part of the orbit path shows where the satellite is in the earth's shadow,  

DLR